8,
Avoca, PA
on Sunday, January 27, 2013

Sunday
Previous Day Next Day
Daily Summary
 ActualAverageRecord
Temperature
Mean Temperature °F 26°F  
Max Temperature 33°F 34°F 69°F (1916)
Min Temperature 5°F 19°F -6°F (1927)
Degree Days
Heating Degree Days 46 39  
Month to date heating degree days 1009 1052  
Since 1 July heating degree days 3123 3430  
Cooling Degree Days 0 0  
Month to date cooling degree days 0 0  
Year to date cooling degree days 0 0  
Moisture
Dew Point 8°F   
Average Humidity 65    
Maximum Humidity 83    
Minimum Humidity 46    
Precipitation
Precipitation T in 0.07 in 1.09 in (1996)
Month to date precipitation 0.74 2.04  
Year to date precipitation 0.74 2.04  
Wind
Wind Speed 4 mph   
Max Wind Speed 12 mph   
Max Gust Speed 14 mph   
Visibility 10 miles   
Events     

Key: T is trace of precipitation, MM is missing value
Source: NWS Daily Summary
Time(EST)TemperatureDew PointHumidity Pressure Visibility Wind DirectionWind SpeedGust SpeedPrecipitationEvents Conditions
12:54 AM 10.9°F 3.9°F 73% 30.40 in 10.0 miles Calm Calm - N/A   Clear
1:54 AM 8.1°F 3.9°F 83% 30.41 in 10.0 miles South 3.5 mph - N/A   Clear
2:54 AM 10.0°F 3.9°F 76% 30.43 in 10.0 miles WSW 4.6 mph - N/A   Clear
3:54 AM 12.0°F 3.9°F 70% 30.43 in 10.0 miles SW 3.5 mph - N/A   Clear
4:54 AM 9.0°F 3.9°F 80% 30.44 in 10.0 miles WSW 3.5 mph - N/A   Clear
5:54 AM 8.1°F 3.0°F 80% 30.46 in 10.0 miles Calm Calm - N/A   Scattered Clouds
6:35 AM 8.6°F 3.2°F 79% 30.42 in 10.0 miles Calm Calm - N/A   Mostly Cloudy
6:54 AM 8.1°F 3.9°F 83% 30.49 in 10.0 miles Calm Calm - N/A   Overcast
7:27 AM 10.4°F 5.0°F 79% 30.44 in 9.0 miles Variable 3.5 mph - N/A   Scattered Clouds
7:54 AM 10.9°F 7.0°F 84% 30.51 in 9.0 miles Calm Calm - N/A   Clear
8:54 AM 12.9°F 7.0°F 77% 30.53 in 8.0 miles SW 3.5 mph - N/A   Clear
9:45 AM 15.8°F 8.6°F 73% 30.50 in 10.0 miles SSW 4.6 mph - N/A   Mostly Cloudy
9:54 AM 16.0°F 9.0°F 74% 30.55 in 10.0 miles South 3.5 mph - N/A   Mostly Cloudy
10:08 AM 17.6°F 10.4°F 73% 30.50 in 10.0 miles SW 3.5 mph - N/A   Scattered Clouds
10:54 AM 21.9°F 10.9°F 63% 30.56 in 10.0 miles SSW 5.8 mph - 0.01 in   Clear
11:54 AM 24.1°F 12.9°F 62% 30.53 in 10.0 miles WNW 8.1 mph - N/A   Partly Cloudy
12:54 PM 27.0°F 12.0°F 53% 30.51 in 10.0 miles NNW 8.1 mph - 0.00 in   Clear
1:54 PM 28.0°F 12.0°F 51% 30.49 in 10.0 miles NNW 5.8 mph - N/A   Clear
2:54 PM 28.0°F 10.9°F 49% 30.48 in 10.0 miles North 6.9 mph - N/A   Clear
3:54 PM 28.9°F 12.0°F 49% 30.49 in 10.0 miles North 5.8 mph - 0.01 in   Clear
4:54 PM 27.0°F 10.9°F 51% 30.49 in 10.0 miles North 3.5 mph - N/A   Clear
5:54 PM 26.1°F 10.9°F 53% 30.51 in 10.0 miles Calm Calm - N/A   Clear
6:54 PM 23.0°F 10.9°F 60% 30.50 in 10.0 miles Calm Calm - N/A   Clear
7:54 PM 21.9°F 10.9°F 63% 30.49 in 10.0 miles ESE 3.5 mph - N/A   Clear
8:54 PM 21.9°F 10.0°F 60% 30.48 in 10.0 miles East 5.8 mph - N/A   Clear
9:54 PM 19.9°F 10.0°F 65% 30.47 in 10.0 miles East 5.8 mph - N/A   Clear
10:54 PM 21.9°F 10.0°F 60% 30.46 in 10.0 miles ESE 3.5 mph - N/A   Clear
11:54 PM 28.0°F 10.0°F 47% 30.46 in 10.0 miles ESE 3.5 mph - N/A   Clear
Astronomy
Sunrise:07:18 AM (EST) Moon Rise:06:06 PM (EST)
Sunset:05:13 PM (EST) Moon Set:07:09 AM (EST)
Moon Phase
Jan. 27 Feb. 03 Feb. 10 Feb. 17 Feb. 25

Copyright © 2014 The Weather Underground, Inc.
8,